TimePDT,TemperatureF,Dew PointF,Humidity,Sea Level PressureIn,VisibilityMPH,Wind Direction,Wind SpeedMPH,Gust SpeedMPH,PrecipitationIn,Events,Conditions,WindDirDegrees,DateUTC
12:15 AM,53.6,51.8,94,29.81,10.0,WSW,3.5,-,N/A,,Unknown,240,2013-05-28 07:15:00
12:35 AM,53.6,50.0,88,29.82,10.0,Calm,Calm,-,N/A,,Unknown,0,2013-05-28 07:35:00
12:55 AM,51.8,50.0,94,29.82,10.0,Calm,Calm,-,N/A,,Unknown,0,2013-05-28 07:55:00
1:15 AM,51.8,50.0,94,29.83,10.0,Calm,Calm,-,N/A,,Unknown,0,2013-05-28 08:15:00
1:35 AM,51.8,50.0,94,29.83,10.0,Calm,Calm,-,N/A,,Unknown,0,2013-05-28 08:35:00
1:55 AM,51.8,50.0,94,29.84,10.0,Calm,Calm,-,N/A,,Unknown,0,2013-05-28 08:55:00
2:15 AM,51.8,50.0,94,29.84,10.0,Calm,Calm,-,N/A,,Unknown,0,2013-05-28 09:15:00
2:35 AM,51.8,50.0,94,29.84,10.0,Calm,Calm,-,N/A,,Unknown,0,2013-05-28 09:35:00
2:55 AM,51.8,50.0,94,29.84,10.0,Calm,Calm,-,N/A,,Unknown,0,2013-05-28 09:55:00
3:15 AM,51.8,50.0,94,29.84,10.0,Calm,Calm,-,N/A,,Unknown,0,2013-05-28 10:15:00
3:35 AM,51.8,50.0,94,29.85,10.0,Calm,Calm,-,N/A,,Unknown,0,2013-05-28 10:35:00
3:55 AM,50.0,50.0,100,29.85,10.0,Calm,Calm,-,N/A,,Unknown,0,2013-05-28 10:55:00
4:15 AM,50.0,50.0,100,29.85,10.0,Calm,Calm,-,N/A,,Unknown,0,2013-05-28 11:15:00
4:35 AM,50.0,50.0,100,29.85,10.0,Calm,Calm,-,N/A,,Unknown,0,2013-05-28 11:35:00
4:55 AM,50.0,50.0,100,29.85,10.0,Calm,Calm,-,N/A,,Unknown,0,2013-05-28 11:55:00
5:15 AM,50.0,50.0,100,29.85,10.0,Calm,Calm,-,N/A,,Unknown,0,2013-05-28 12:15:00
5:35 AM,50.0,50.0,100,29.86,10.0,Calm,Calm,-,N/A,,Unknown,0,2013-05-28 12:35:00
5:55 AM,50.0,50.0,100,29.86,10.0,Calm,Calm,-,N/A,,Unknown,0,2013-05-28 12:55:00
6:15 AM,50.0,50.0,100,29.86,10.0,Calm,Calm,-,N/A,,Unknown,0,2013-05-28 13:15:00
6:35 AM,50.0,50.0,100,29.86,10.0,Calm,Calm,-,N/A,,Unknown,0,2013-05-28 13:35:00
6:55 AM,51.8,50.0,94,29.87,10.0,Calm,Calm,-,N/A,,Unknown,0,2013-05-28 13:55:00
7:15 AM,51.8,50.0,94,29.87,10.0,Calm,Calm,-,N/A,,Unknown,0,2013-05-28 14:15:00
7:35 AM,51.8,50.0,94,29.87,10.0,Calm,Calm,-,N/A,,Unknown,0,2013-05-28 14:35:00
7:55 AM,53.6,50.0,88,29.87,10.0,Calm,Calm,-,N/A,,Unknown,0,2013-05-28 14:55:00
8:15 AM,53.6,50.0,88,29.87,10.0,Calm,Calm,-,N/A,,Unknown,0,2013-05-28 15:15:00
8:35 AM,53.6,50.0,88,29.87,10.0,Calm,Calm,-,N/A,,Unknown,0,2013-05-28 15:35:00
8:55 AM,55.4,50.0,82,29.87,10.0,Calm,Calm,-,N/A,,Unknown,0,2013-05-28 15:55:00
9:15 AM,55.4,50.0,82,29.87,10.0,Calm,Calm,-,N/A,,Unknown,0,2013-05-28 16:15:00
9:35 AM,57.2,48.2,72,29.87,10.0,Calm,Calm,-,N/A,,Unknown,0,2013-05-28 16:35:00
9:55 AM,57.2,48.2,72,29.88,10.0,WSW,4.6,-,N/A,,Unknown,250,2013-05-28 16:55:00
10:15 AM,57.2,48.2,72,29.88,10.0,Calm,Calm,-,N/A,,Unknown,0,2013-05-28 17:15:00
10:35 AM,57.2,50.0,77,29.88,10.0,Calm,Calm,-,N/A,,Unknown,0,2013-05-28 17:35:00
10:55 AM,59.0,48.2,67,29.88,10.0,Calm,Calm,-,N/A,,Unknown,0,2013-05-28 17:55:00
11:15 AM,59.0,48.2,67,29.88,10.0,SSW,3.5,-,N/A,,Unknown,210,2013-05-28 18:15:00
11:35 AM,59.0,48.2,67,29.89,10.0,SSW,5.8,-,N/A,,Unknown,210,2013-05-28 18:35:00
11:55 AM,57.2,48.2,72,29.89,10.0,WSW,4.6,-,N/A,,Unknown,240,2013-05-28 18:55:00
12:15 PM,60.8,48.2,63,29.89,10.0,West,4.6,-,N/A,,Unknown,270,2013-05-28 19:15:00
12:35 PM,62.6,48.2,59,29.89,10.0,WSW,4.6,-,N/A,,Unknown,250,2013-05-28 19:35:00
12:55 PM,57.2,50.0,77,29.90,10.0,West,4.6,-,N/A,,Unknown,270,2013-05-28 19:55:00
1:15 PM,57.2,50.0,77,29.90,7.0,WSW,11.5,-,N/A,Rain,Light Rain,240,2013-05-28 20:15:00
1:35 PM,57.2,51.8,82,29.90,7.0,SW,5.8,-,N/A,Rain,Light Rain,230,2013-05-28 20:35:00
1:55 PM,60.8,51.8,72,29.90,10.0,SW,6.9,-,N/A,,Unknown,230,2013-05-28 20:55:00
2:15 PM,59.0,51.8,77,29.90,10.0,WSW,11.5,-,N/A,Rain,Light Rain,250,2013-05-28 21:15:00
2:35 PM,60.8,48.2,63,29.90,10.0,SW,10.4,18.4,N/A,,Unknown,220,2013-05-28 21:35:00
2:55 PM,62.6,48.2,59,29.90,10.0,SW,9.2,17.3,N/A,,Unknown,230,2013-05-28 21:55:00
3:15 PM,59.0,50.0,72,29.90,10.0,West,6.9,17.3,N/A,,Unknown,280,2013-05-28 22:15:00
3:35 PM,57.2,51.8,82,29.90,10.0,Calm,Calm,-,N/A,Rain,Light Rain,0,2013-05-28 22:35:00
3:55 PM,60.8,50.0,68,29.89,10.0,WSW,5.8,-,N/A,,Unknown,240,2013-05-28 22:55:00
4:15 PM,59.0,50.0,72,29.89,8.0,West,12.7,18.4,N/A,,Unknown,260,2013-05-28 23:15:00
4:35 PM,55.4,53.6,94,29.90,5.0,West,5.8,-,0.02,Rain,Light Rain,260,2013-05-28 23:35:00
4:55 PM,57.2,53.6,88,29.90,10.0,Calm,Calm,-,0.02,Rain,Light Rain,0,2013-05-28 23:55:00
5:15 PM,55.4,55.4,100,29.90,3.0,Calm,Calm,-,0.02,Rain,Light Rain,0,2013-05-29 00:15:00
5:35 PM,57.2,55.4,94,29.89,7.0,Calm,Calm,-,0.02,Rain,Light Rain,0,2013-05-29 00:35:00
5:55 PM,57.2,53.6,88,29.89,4.0,West,8.1,-,0.04,Rain,Light Rain,270,2013-05-29 00:55:00
6:15 PM,53.6,53.6,100,29.89,5.0,Calm,Calm,-,N/A,Rain,Light Rain,0,2013-05-29 01:15:00
6:35 PM,55.4,53.6,94,29.88,10.0,Calm,Calm,-,N/A,,Unknown,0,2013-05-29 01:35:00
6:55 PM,55.4,53.6,94,29.87,10.0,Calm,Calm,-,N/A,,Unknown,0,2013-05-29 01:55:00
7:15 PM,55.4,53.6,94,29.86,10.0,Calm,Calm,-,N/A,,Unknown,0,2013-05-29 02:15:00
7:35 PM,55.4,53.6,94,29.85,10.0,Calm,Calm,-,N/A,,Unknown,0,2013-05-29 02:35:00
7:55 PM,55.4,53.6,94,29.85,10.0,Calm,Calm,-,N/A,,Unknown,0,2013-05-29 02:55:00
8:15 PM,53.6,51.8,94,29.85,10.0,Calm,Calm,-,N/A,,Unknown,0,2013-05-29 03:15:00
8:35 PM,53.6,51.8,94,29.85,2.5,Calm,Calm,-,0.01,Rain,Light Rain,0,2013-05-29 03:35:00
8:55 PM,51.8,51.8,100,29.84,4.0,Calm,Calm,-,0.02,Rain,Light Rain,0,2013-05-29 03:55:00
9:15 PM,50.0,50.0,100,29.84,10.0,Calm,Calm,-,N/A,,Unknown,0,2013-05-29 04:15:00
9:35 PM,50.0,50.0,100,29.84,5.0,Calm,Calm,-,N/A,Rain,Light Rain,0,2013-05-29 04:35:00
9:55 PM,50.0,50.0,100,29.83,10.0,Calm,Calm,-,N/A,,Unknown,0,2013-05-29 04:55:00
10:15 PM,50.0,50.0,100,29.81,10.0,Calm,Calm,-,N/A,,Unknown,0,2013-05-29 05:15:00
10:35 PM,50.0,50.0,100,29.81,10.0,Calm,Calm,-,N/A,,Unknown,0,2013-05-29 05:35:00
10:55 PM,50.0,50.0,100,29.81,10.0,Calm,Calm,-,N/A,,Unknown,0,2013-05-29 05:55:00
11:15 PM,50.0,50.0,100,29.81,10.0,Calm,Calm,-,N/A,,Unknown,0,2013-05-29 06:15:00
11:35 PM,50.0,50.0,100,29.79,10.0,Calm,Calm,-,N/A,,Unknown,0,2013-05-29 06:35:00
11:55 PM,50.0,50.0,100,29.79,10.0,Calm,Calm,-,N/A,,Unknown,0,2013-05-29 06:55:00